N5CNB Weather Reports


Display with metric or nautical units.
time (UTC)temp
F
wind
direction
speed
MPH
gust
MPH
rain 1hr
in
rain 24hr
in
rain mn
in
humidity
%
barometer
mb
20260503053016 54 356 0.0 0.0 0.00 0.00 0.00 90 1021.9
20260503051521 54 356 0.0 0.0 0.00 0.00 0.00 90 1021.9
20260503050024 54 354 0.0 0.0 0.00 0.00 0.00 90 1021.6
20260503044525 54 353 0.0 0.0 0.00 0.00 0.00 90 1021.7
20260503043025 55 353 0.0 0.0 0.00 0.00 0.00 90 1021.6
20260503041518 55 354 0.0 0.0 0.00 0.00 0.00 89 1021.6
20260503040022 55 353 0.0 0.0 0.00 0.00 0.00 89 1021.3
20260503034537 56 354 0.0 0.0 0.00 0.00 0.00 89 1021.2
20260503033008 56 353 0.0 0.0 0.00 0.00 0.00 88 1021.3
20260503031510 57 353 0.0 0.0 0.00 0.00 0.00 88 1021.0
20260503030009 57 353 0.0 0.0 0.00 0.00 0.00 87 1020.7
20260503024506 58 354 0.0 0.0 0.00 0.00 0.00 87 1020.5
20260503023008 58 354 0.0 0.0 0.00 0.00 0.00 85 1020.6
20260503021509 59 354 0.0 0.0 0.00 0.00 0.00 84 1020.6
20260503020010 60 353 0.0 0.0 0.00 0.00 0.00 81 1020.4
20260503014515 61 353 0.0 0.0 0.00 0.00 0.00 79 1020.3
20260503013004 63 353 0.0 0.0 0.00 0.00 0.00 77 1020.3
20260503011509 65 353 0.0 0.0 0.00 0.00 0.00 73 1020.1
20260503010011 68 353 0.0 0.0 0.00 0.00 0.00 66 1019.8
20260503004509 71 353 0.0 0.0 0.00 0.00 0.00 59 1019.6
20260503003013 72 353 0.0 3.0 0.00 0.02 0.00 53 1019.6
20260503001504 73 86 0.0 6.0 0.00 0.03 0.00 51 1019.5
20260503000005 73 22 2.0 9.0 0.00 0.06 0.00 49 1019.5
20260502234512 73 354 1.0 8.0 0.00 0.07 0.00 50 1019.4
20260502233016 74 72 3.0 11.0 0.00 0.11 0.00 47 1019.3
20260502231518 74 335 2.0 11.0 0.00 0.14 0.00 48 1019.1
20260502230005 74 354 3.0 13.0 0.00 0.14 0.00 47 1019.3
20260502224510 74 33 5.0 12.0 0.00 0.15 0.00 48 1019.2
20260502223010 74 103 3.0 12.0 0.00 0.20 0.00 48 1019.2
20260502221513 74 3 4.0 16.0 0.00 0.20 0.00 47 1019.2
20260502220015 73 51 7.0 14.0 0.00 0.21 0.00 50 1019.2
20260502214507 73 51 7.0 15.0 0.00 0.27 0.00 50 1019.5
20260502213009 73 91 7.0 14.0 0.00 0.28 0.00 49 1019.6
20260502211523 73 69 6.0 12.0 0.00 0.28 0.00 51 1019.9
20260502210014 74 58 5.0 12.0 0.00 0.28 0.00 49 1020.1
20260502203007 74 101 3.0 10.0 0.00 0.29 0.00 52 1020.3
20260502201511 73 23 6.0 14.0 0.00 0.30 0.00 50 1020.4
20260502200014 72 345 3.0 10.0 0.00 0.34 0.00 50 1020.6
20260502194515 72 65 4.0 12.0 0.00 0.35 0.00 54 1020.7
20260502193019 72 2 5.0 14.0 0.00 0.36 0.00 54 1020.7
20260502191514 72 349 6.0 15.0 0.00 0.39 0.00 52 1020.8
20260502190019 71 25 4.0 13.0 0.00 0.47 0.00 56 1020.9
20260502184516 70 27 7.0 15.0 0.00 0.57 0.00 56 1021.1
20260502183016 70 27 5.0 13.0 0.00 0.58 0.00 57 1021.3
20260502163015 66 360 5.0 17.0 0.00 0.68 0.00 63 1022.2
20260502161518 65 54 8.0 16.0 0.00 0.71 0.00 66 1022.1
20260502151515 63 347 6.0 13.0 0.00 0.88 0.00 71 1021.6
20260502123021 51 13 1.0 3.0 0.00 2.04 0.00 91 1020.3
20260502121527 50 356 0.0 1.0 0.00 2.16 0.00 91 1020.0
20260502114515 49 36 0.0 0.0 0.00 2.76 0.00 91 1019.7
20260502113022 49 36 0.0 0.0 0.00 2.94 0.00 91 1019.5
20260502111525 49 3 0.0 4.0 0.00 3.05 0.00 91 1019.3
20260502110025 49 9 1.0 5.0 0.00 3.14 0.00 91 1018.8
20260502104516 50 358 0.0 4.0 0.00 3.34 0.00 91 1018.6
20260502101520 50 4 1.0 4.0 0.00 3.82 0.00 91 1018.5
20260502091518 50 10 2.0 7.0 0.00 4.04 0.00 90 1017.6
20260502071525 52 3 2.0 9.0 0.00 5.02 0.00 90 1016.9
20260502070022 51 350 1.0 6.0 0.00 5.04 0.00 90 1017.0
20260502064529 51 40 0.0 5.0 0.00 5.08 0.00 90 1017.0
20260502063010 52 355 2.0 8.0 0.00 5.08 0.00 89 1017.2
20260502061511 52 10 3.0 11.0 0.00 5.08 0.00 89 1017.3
20260502060016 53 356 4.0 13.0 0.00 5.08 0.00 89 1017.2
20260502054519 53 340 5.0 13.0 0.00 5.08 0.00 89 1017.3